Погода в Подосиновце

Россия / Кировская область     60°16′40″N   47°04′08″E
темп.,
°C
ветер,
м/с
пор.,
м/с
влажн.,
%
обл.,
%
осадки,
мм/ч
давл.,
гПа
погр.,
м
9 декабря, чт
чт900:00−15юз119994 0.1 102210
03:00−19з1110099 0.1 10249
06:00−16з12100100 0.0 102452
09:00−14зсз1297100 0.0 102488
12:00−12зсз1293100 0.0 1024153
15:00−15зсз1198100 0.0 102419
18:00−21зсз2210067 0.0 102639
21:00−24зсз2210084 0.0 102740
10 декабря, пт
пт1000:00−24зсз2210060 0.0 102929
03:00−26з1110064 0.0 103010
06:00−25з2210073 0.0 103330
09:00−24з2410093 0.0 103546
12:00−17зсз269874 0.0 1036130
15:00−21з1110057 0.0 10379
18:00−23з1110084 0.0 10399
21:00−23з1110087 0.0 10409
11 декабря, сб
сб1100:00−23зюз1110074 0.0 10429
03:00−23юз1110054 0.0 10429
06:00−23юз1110053 0.0 10439
09:00−23ююз1110069 0.0 10439
12:00−15ююз129776 0.0 104359
15:00−18ю119959 0.0 10439
18:00−18ююз229992 0.0 104340
21:00−18ююз259581 0.0 104371
12 декабря, вс
вс1200:00−16ююз2792100 0.0 1043129
03:00−14ююз298992 0.0 1043153
06:00−15ююз21089100 0.0 1042175
09:00−15ююз289047 0.0 1042130
12:00−11ююз3128619 0.0 1041256
15:00−14ю269268 0.0 104181
18:00−14ююз299041 0.0 1040161
21:00−14ююз3108995 0.0 1039182
13 декабря, пн
пн1300:00−14ююз3109088 0.0 1038178
03:00−14ююз3109178 0.0 1038181
06:00−13ююз3119263 0.0 1037204
09:00−12ююз3119054 0.0 1036228
12:00−9юз3128820 0.0 1035290
15:00−11ююз399064 0.0 1035179
18:00−10юз31188100 0.0 1034227
21:00−11ююз31088100 0.0 1033212